Retour au catalogue

STARLINK-2576

ActifCommunicationsVLEO
NORAD 48400·PAYLOAD·🇺🇸 United States

Lancé May 4, 2021 depuis Cape Canaveral Space Force Station

Loading…

Prochains Passages (prochaines 24 heures)

TLE

FraisSource: CelesTrak SupGP

Époque: Sep 14, 2026, 21:23 UTC

1 48400C 21038AZ  26257.89145833 -.00019395  00000+0 -62360-3 0  2578
2 48400  53.1583 172.3617 0001416  95.2435 170.6254 15.31716144    19

Suivez STARLINK-2576 en temps réel avec AllMySat

Download on the App Store